Location: Squirrel Cove
(50.1074°N, 124.9139°W)
Time: 23:49:43
(UTC-08:00)

BlueWalker 3 - Pass Details

Date: 01 December 2022
Orbit: 499 x 517 km, 53.2° (Epoch: 29 January)

Event Time Altitude Azimuth Distance (km) Brightness Sun altitude
Rises 17:42:32 0° 267° (W) 2,631 7.2 -12.6°
Reaches altitude 10° 17:44:46 10° 271° (W) 1,741 5.9 -12.9°
Maximum altitude 17:48:40 57° 351° (N) 609 2.2 -13.5°
Enters shadow 17:50:50 24° 63° (ENE) 1,095 3.0 -13.9°
